Deer Park, WA

11:45 AM PDT on May 25, 2017 (GMT -0700)
Deer Park

Weather History for KDEW - July, 2014

Change the Weather History Date:

Saturday, July 26, 2014

  Actual Average Record
Temperature  
Mean Temperature 64 °F 67 °F  
Max Temperature 85 °F 85 °F 96 °F (2007)
Min Temperature 43 °F 49 °F 39 °F (2005)
Degree Days  
Heating Degree Days 1 1  
Month to date heating degree days 18 59  
Since 1 June heating degree days 224 259  
Since 1 July heating degree days 18 59  
Cooling Degree Days 0 3  
Month to date cooling degree days 154 60  
Year to date cooling degree days 156 80  
Since 1 June cooling degree days 156 77  
Growing Degree Days 14 (Base 50)    
Moisture  
Dew Point 42 °F    
Average Humidity 56    
Maximum Humidity 92    
Minimum Humidity 19    
Precipitation  
Precipitation 0.00 in 0.01 in 0.50 in (2016)
Month to date precipitation 0.09 0.83  
Year to date precipitation 13.68 12.53  
Sea Level Pressure  
Sea Level Pressure 30.10 in    
Wind  
Wind Speed 4 mph (ENE)    
Max Wind Speed 10 mph    
Max Gust Speed 15 mph    
Visibility 10 miles    
Events      
T = Trace of Precipitation, MM = Missing Value Source: NWS Daily Summary

Daily Weather History Graph

Daily Weather History Graph

Search for Another Location

Airport or City:

Trip Planner

Search our weather history database for the weather conditions in past years. The results will help you decide how hot, cold, wet, or windy it might be!

Date:

Astronomy

Jul. 26, 2014 Rise Set
Actual Time 5:18 AM PDT 8:33 PM PDT
Civil Twilight 4:41 AM PDT 9:10 PM PDT
Nautical Twilight 3:52 AM PDT 9:59 PM PDT
Astronomical Twilight 2:49 AM PDT 11:00 PM PDT
Moon 5:20 AM PDT (7/26) 8:03 PM PDT (7/26)
Length of Visible Light 16h 29m
Length of Day
15h 14m
Waning Crescent, 0% of the Moon is Illuminated
Jul 26
Waning Crescent
Jul 26
New
Aug 3
First Quarter
Aug 10
Full
Aug 17
Last Quarter

Hourly Weather History & Observations

Time (PDT) Temp. Windchill Dew Point Humidity Pressure Visibility Wind Dir Wind Speed Gust Speed Precip Events Conditions
12:53 AM 50.0 °F - 44.1 °F 80% 30.06 in 10.0 mi Calm Calm - N/A   Clear
1:53 AM 46.0 °F - 42.1 °F 86% 30.07 in 10.0 mi Calm Calm - N/A   Clear
2:53 AM 46.9 °F - 43.0 °F 86% 30.09 in 10.0 mi Calm Calm - N/A   Clear
3:53 AM 43.0 °F - 39.9 °F 89% 30.10 in 10.0 mi Calm Calm - N/A   Clear
4:53 AM 45.0 °F - 42.1 °F 90% 30.11 in 10.0 mi Calm Calm - N/A   Clear
5:53 AM 44.1 °F 42.5 °F 41.0 °F 89% 30.12 in 10.0 mi WNW 3.5 mph - N/A   Clear
6:53 AM 52.0 °F - 46.0 °F 80% 30.13 in 10.0 mi Calm Calm - N/A   Clear
8:53 AM 66.9 °F - 48.0 °F 51% 30.15 in 10.0 mi NNE 4.6 mph - N/A   Clear
11:53 AM 78.1 °F - 42.1 °F 28% 30.16 in 10.0 mi SSE 4.6 mph - N/A   Clear
12:53 PM 81.0 °F - 39.9 °F 23% 30.14 in 10.0 mi South 10.4 mph - N/A   Clear
1:53 PM 82.0 °F - 39.9 °F 22% 30.14 in 10.0 mi South 5.8 mph - N/A   Clear
2:53 PM 82.9 °F - 39.9 °F 22% 30.12 in 10.0 mi North 3.5 mph - N/A   Clear
3:53 PM 82.9 °F - 39.0 °F 21% 30.11 in 10.0 mi South 6.9 mph - N/A   Clear
4:53 PM 84.9 °F - 39.0 °F 20% 30.09 in 10.0 mi Calm Calm - N/A   Clear
5:53 PM 84.0 °F - 37.9 °F 19% 30.09 in 10.0 mi Variable 3.5 mph - N/A   Clear
6:53 PM 82.9 °F - 39.9 °F 22% 30.07 in 10.0 mi NE 6.9 mph - N/A   Clear
7:53 PM 78.1 °F - 43.0 °F 29% 30.06 in 10.0 mi ENE 4.6 mph - N/A   Clear
8:53 PM 66.0 °F - 45.0 °F 47% 30.08 in 10.0 mi ENE 6.9 mph - N/A   Clear
9:53 PM 61.0 °F - 45.0 °F 56% 30.10 in 10.0 mi NNE 4.6 mph - N/A   Clear
10:53 PM 60.1 °F - 45.0 °F 57% 30.10 in 10.0 mi Calm Calm - N/A   Clear
11:53 PM 62.1 °F - 44.1 °F 52% 30.10 in 10.0 mi North 3.5 mph - N/A   Clear